COSMOS 2522 (752)

Last updated on Oct. 25, 2020, 5:57 a.m. UTC

1 42939U 17055A   20298.41854472  .00000008  00000-0  00000+0 0  9998
2 42939  64.3044 262.5921 0009790 250.1198 278.1110  2.13102059 24041
UTC
Height (km)
Latitude
Longitude
Inclination
Orbital Period
UTC large
Height (km)
Speed (km/s)
/
Latitude / Longitude
Inclination (degrees)
Orbital Period (minutes)
Azimuth
Elevation
Range (km)
Doppler Factor
iOS Compass Heading
iOS Angle

Next 30 passes for location: Hong Kong

Rise time Rise Azimuth (degrees) Set time Set Azimuth (degrees) Duration Max altitude (degrees)

No matching passes for this satellites